Tracking 18874 objects as of 17-Dec-2017
HD Live streaming from Space Station
objects crossing your sky now

FLOCK 2K 16

Track FLOCK 2K 16 now!
10-day predictions
FLOCK 2K 16 is classified as:


NORAD ID: 42889
Int'l Code: 2017-042BS
Perigee: 458.4 km
Apogee: 477.9 km
Inclination: 97.0 °
Period: 93.8 minutes
Semi major axis: 6839 km
RCS: Unknown
Launch date: July 14, 2017
Source: United States (US)
Launch site: TYURATAM MISSILE AND SPACE COMPLEX (TTMTR)
aabbcc
Your satellite tracking list
Your tracking list is empty




NASA's NSSDC Master Catalog

Two Line Element Set (TLE):
1 42889U 17042BS  17350.78408134 +.00002155 +00000-0 +65545-4 0  9998
2 42889 096.9950 251.6770 0014248 044.4310 315.8074 15.34959501023649
Source of the keplerian elements: AFSPC